GFSNGP_con_3kmhel_057.txt.gz
Helicity
17 13 9 18 63 16 -15 7 -3 0 -3 19 15 14 19 52 89 42 70 76 81 82 123 147 170 212 209 249 264 265 262 260 251 229 234 251 268 257 242 266 240 235 241 223
24 29 27 30 3 -5 -1 14 -27 -7 -2 32 28 34 64 76 73 59 62 81 114 128 198 255 238 254 238 226 258 268 256 254 258 247 248 250 243 238 226 222 203 183 190 199
69 40 18 65 -6 -3 -15 -26 -5 -8 -20 6 29 27 45 23 88 89 125 117 122 177 256 286 301 261 259 244 237 237 234 203 207 229 246 233 210 224 223 209 162 176 176 173
103 124 108 64 15 12 11 -20 -7 -3 -11 22 27 32 116 124 132 169 191 187 161 206 223 239 265 271 234 217 199 181 193 212 230 246 237 234 226 206 178 143 131 146 137 104
140 83 85 33 66 49 11 13 7 -12 2 14 50 133 141 163 177 202 203 185 204 208 244 257 250 225 202 191 185 199 224 243 247 210 182 194 198 192 161 129 106 106 123 123
156 102 81 35 41 30 9 31 10 15 18 65 115 76 48 184 187 254 257 268 279 265 267 253 204 175 184 192 215 235 235 207 164 168 188 190 165 153 132 142 148 139 134 123
129 138 107 58 33 33 91 1 1 46 64 78 76 38 201 213 211 200 242 251 259 241 218 186 168 177 210 225 226 188 171 182 179 185 199 191 179 165 161 160 149 145 135 135
130 119 94 125 139 90 61 -23 29 40 38 67 114 224 232 211 194 243 271 248 216 210 194 186 180 208 220 215 196 187 171 180 209 227 214 198 189 176 156 155 164 155 156 164
129 123 135 79 65 41 0 31 53 45 52 97 214 206 219 232 241 259 264 236 200 197 199 197 202 215 245 236 218 221 225 224 223 224 209 191 181 187 183 177 175 185 168 158
88 70 85 72 57 71 82 33 43 86 78 127 172 209 229 252 238 258 257 244 218 214 219 240 250 271 273 264 245 249 253 232 233 225 220 198 183 194 200 186 171 160 156 150
68 61 68 108 67 74 48 53 67 88 95 135 184 207 241 233 242 257 271 262 239 237 267 291 322 323 301 285 272 273 267 266 287 270 241 213 225 225 195 192 181 173 191 174
66 49 56 58 53 125 101 31 40 65 93 156 194 216 244 249 252 285 300 293 281 310 324 345 344 357 345 310 294 281 315 330 306 265 236 208 196 155 177 183 155 162 183 169
42 45 45 49 106 113 92 49 72 79 100 135 202 227 240 268 275 309 322 301 342 348 381 395 410 422 388 373 327 347 348 328 285 229 211 206 178 163 155 123 100 104 117 119
39 89 61 63 69 79 79 76 95 63 85 142 196 254 299 315 356 359 356 361 412 443 427 449 475 493 416 413 395 396 351 310 223 194 188 162 160 160 156 161 145 137 109 132
72 97 64 73 66 64 80 108 94 98 144 265 287 294 359 423 425 401 444 512 474 453 474 491 534 539 479 424 356 322 269 231 194 173 160 156 149 145 144 137 136 136 133 126
102 78 74 47 72 82 97 104 91 136 203 277 300 344 366 432 498 572 570 517 498 557 678 707 677 536 361 327 278 240 253 223 158 126 117 127 131 134 134 131 129 131 138 158
94 62 50 57 76 89 88 95 88 149 235 312 387 456 539 557 721 679 784 889 1010 873 786 754 657 463 287 240 238 179 160 144 137 107 124 135 140 140 141 134 136 145 145 197
141 122 105 99 84 74 71 95 135 171 245 350 522 693 806 800 871 930 879 895 912 925 896 651 384 347 260 191 188 185 151 124 117 128 133 139 150 143 140 138 140 143 160 177
172 152 116 94 72 65 86 103 207 384 576 723 814 904 962 908 788 681 709 753 694 567 365 256 203 202 216 215 167 147 136 128 124 133 141 142 119 134 135 141 150 163 164 173
186 190 231 242 274 298 415 410 411 487 564 642 647 628 614 598 590 548 469 410 282 213 194 189 215 206 177 154 145 147 147 144 143 138 138 141 137 142 137 145 151 158 171 183
207 212 232 265 283 314 327 357 439 480 384 402 419 436 432 378 340 292 264 250 209 184 187 170 159 140 141 136 139 155 153 152 149 154 153 151 148 141 160 158 162 170 181 190
110 115 155 170 195 213 218 223 250 249 255 268 261 244 253 246 245 244 197 166 157 131 134 134 140 158 149 121 147 140 148 157 162 161 158 158 163 171 171 172 174 183 202 193
154 169 204 224 225 232 251 255 253 247 242 217 207 186 180 153 120 114 129 104 101 110 121 150 142 141 133 115 137 136 141 154 155 162 166 166 170 170 179 180 197 200 194 195
178 202 201 193 223 274 265 203 185 179 177 161 145 116 102 105 123 116 103 118 112 115 169 137 137 134 121 138 146 165 172 168 175 164 157 161 147 155 168 181 182 185 182 162
234 225 222 222 221 180 156 130 134 132 133 136 130 122 127 117 94 91 107 130 123 118 151 152 144 135 126 161 173 177 171 163 177 191 190 182 185 179 172 173 169 166 164 139
224 229 234 245 201 159 142 135 138 114 95 106 114 112 113 111 112 115 132 144 152 165 201 145 152 148 157 157 170 167 166 175 183 192 192 176 159 159 160 156 153 146 128 112
235 214 189 200 193 172 159 149 131 144 154 120 120 126 130 124 127 138 136 145 168 177 173 182 173 186 194 209 198 189 191 183 189 195 177 160 153 150 146 139 131 118 101 87

GFSNGP_con_3kmhel_060.txt.gz
Helicity
27 4 21 45 28 19 -46 117 126 -1 3 5 17 117 34 98 129 78 51 91 93 175 156 161 199 330 395 455 430 375 371 387 328 300 288 301 319 324 321 327 311 278 283 286
46 42 25 50 7 52 20 -27 8 20 34 10 30 47 21 74 83 104 72 73 93 143 258 219 325 320 343 351 338 320 333 299 273 286 274 283 275 284 284 260 253 248 252 231
77 69 49 55 33 13 42 28 25 25 9 44 31 40 71 41 88 115 124 170 114 123 230 395 380 305 305 332 311 324 326 287 248 282 297 247 220 214 241 265 245 250 224 208
135 119 33 43 53 54 56 46 42 38 39 21 20 37 93 125 94 165 246 212 178 260 348 369 436 401 268 254 281 254 261 271 286 243 233 266 294 301 268 247 234 192 174 155
219 144 122 89 65 72 76 38 13 26 14 21 35 136 116 125 142 190 310 329 305 411 402 373 402 358 262 239 255 280 256 225 223 273 284 275 273 282 270 217 169 141 138 168
225 249 136 101 108 28 52 63 31 34 33 46 82 114 127 123 155 307 353 277 306 353 360 319 292 313 269 250 218 204 214 251 222 219 259 280 246 193 170 165 226 239 252 246
249 233 141 117 66 29 54 -0 11 37 35 25 87 127 180 166 219 270 280 293 339 333 305 286 282 264 246 234 243 256 240 242 276 253 236 216 253 216 225 276 306 269 262 234
179 189 113 113 24 53 65 2 83 45 55 56 122 181 209 246 263 290 302 310 314 317 306 266 256 245 271 264 239 279 320 302 251 234 221 233 256 277 301 284 279 259 233 240
97 145 94 48 53 104 66 77 42 58 35 66 195 208 243 236 230 279 293 310 271 325 320 282 250 285 245 261 337 331 301 290 264 234 248 265 296 276 296 273 270 256 236 228
39 61 92 104 137 89 65 69 129 121 107 78 221 259 246 226 242 316 337 243 324 333 324 314 284 249 332 352 331 339 330 287 256 292 302 342 314 291 296 286 250 219 232 232
42 32 32 -0 1 60 54 60 82 42 83 82 186 229 260 246 294 307 304 309 329 336 317 330 328 413 389 371 349 358 362 348 341 320 325 392 400 338 285 268 253 262 257 229
62 37 42 25 21 35 36 37 42 94 114 59 171 255 250 262 294 308 312 368 386 345 359 398 462 442 396 381 380 435 437 435 384 395 358 322 289 297 293 184 182 195 198 188
10 5 33 47 75 75 80 64 104 93 84 61 159 212 241 275 290 286 392 474 453 448 491 529 505 481 457 500 517 518 528 436 418 397 365 372 335 247 217 175 126 112 125 135
25 45 68 86 70 90 74 57 74 123 133 67 161 232 276 294 362 372 520 536 544 630 682 668 687 744 713 711 740 654 501 467 480 433 350 308 266 259 240 205 146 111 81 60
49 61 89 96 79 54 57 67 99 129 148 146 185 279 333 372 415 517 632 727 796 784 737 664 666 643 610 581 644 647 650 649 527 429 343 264 212 181 188 165 149 168 172 111
224 211 173 145 113 75 52 57 104 145 171 192 253 357 408 474 618 811 850 876 880 768 717 806 834 709 665 714 764 687 607 528 396 253 206 201 180 180 167 162 166 174 191 205
153 183 237 223 134 83 97 74 70 111 181 260 344 413 553 792 1002 1124 1141 1095 1127 1088 973 857 805 809 789 733 652 623 454 272 232 225 216 194 179 157 170 173 178 184 193 200
198 163 211 167 110 120 95 127 153 189 237 387 553 728 906 1075 1121 1107 1126 1228 1250 1098 864 732 717 714 636 420 318 249 241 222 205 202 173 153 171 177 186 186 178 181 195 197
190 180 208 217 225 301 341 279 275 324 402 516 702 786 892 937 931 861 823 828 685 595 519 401 327 269 260 264 227 189 176 169 146 145 165 166 148 156 180 179 209 215 201 192
185 191 181 215 278 234 230 236 268 341 424 502 566 683 751 675 570 541 421 434 333 277 232 227 232 221 185 168 150 136 136 144 149 158 170 178 173 195 192 182 173 178 190 202
193 216 257 281 294 290 269 253 304 346 347 410 455 440 435 373 334 302 296 268 188 165 156 129 111 103 108 106 106 112 125 151 169 181 178 163 179 172 186 207 207 217 212 212
211 250 270 268 305 322 295 244 236 250 279 284 280 272 265 223 180 183 153 129 99 88 82 89 106 122 97 102 127 134 151 154 158 166 172 188 202 211 216 222 231 226 225 220
153 176 197 222 227 234 244 235 221 210 210 193 175 153 132 92 74 85 89 58 53 66 109 111 114 126 132 125 153 152 155 170 164 162 176 184 193 211 226 217 224 220 207 205
194 214 208 188 195 219 225 196 189 180 167 153 135 103 87 98 113 93 79 85 103 140 118 119 137 146 132 136 150 163 169 176 181 185 198 211 188 186 185 217 211 193 189 180
279 251 225 210 204 155 130 113 120 125 130 135 133 137 157 113 95 102 110 109 116 117 124 126 134 132 127 162 172 175 172 171 191 203 201 207 213 226 216 199 192 184 174 143
235 232 252 279 224 178 169 171 151 91 79 92 96 96 107 105 104 112 127 147 169 215 154 128 123 127 153 196 198 179 176 195 207 219 233 226 215 203 197 191 171 156 149 143
217 195 176 177 161 157 159 143 132 166 160 109 128 147 150 130 137 140 161 154 134 155 164 146 148 140 130 132 142 171 187 193 209 216 203 196 189 177 162 148 141 130 109 90

GFSNGP_con_3kmhel_063.txt.gz
Helicity
159 4 70 17 58 28 61 80 127 13 21 41 41 -6 100 97 57 130 113 165 209 145 116 167 254 340 479 585 543 426 433 410 392 388 367 351 325 321 317 302 303 311 350 366
122 140 65 85 -1 23 49 31 115 125 32 43 28 65 94 130 128 194 165 166 185 222 347 300 280 338 412 436 377 342 346 359 365 356 336 315 315 320 332 344 342 348 351 337
141 122 101 73 10 4 6 23 111 129 102 63 43 75 77 75 141 138 129 177 188 293 419 400 367 386 358 335 331 345 375 347 355 378 358 335 350 360 341 344 340 322 296 293
251 249 149 154 -29 93 53 3 36 50 62 76 72 54 96 122 126 136 196 254 332 409 503 498 481 444 369 345 339 320 328 343 359 353 354 342 350 338 353 321 288 255 235 252
271 260 207 117 154 103 61 14 42 26 45 52 55 148 216 211 209 238 250 306 356 498 633 618 591 560 470 406 352 369 405 376 360 383 381 350 315 302 272 241 205 191 227 331
338 241 125 68 131 124 85 83 112 111 89 89 97 166 142 173 134 216 301 362 442 492 590 563 501 501 454 351 420 413 375 379 349 310 304 300 290 243 209 184 214 333 352 347
348 254 204 151 60 47 150 94 34 49 54 41 31 96 150 249 202 201 276 354 430 476 492 487 481 449 378 366 347 335 347 323 308 314 300 269 245 220 255 363 428 426 378 285
42 112 130 118 183 190 173 83 14 33 -2 77 42 93 128 149 174 173 238 327 414 480 467 471 460 419 369 330 338 368 332 317 318 312 309 275 316 391 408 419 372 353 369 357
-37 -23 4 123 145 97 326 263 34 98 138 8 73 142 124 162 230 267 335 392 434 460 450 434 402 358 378 391 404 416 386 368 376 389 408 408 432 407 409 364 340 330 348 364
93 66 42 55 27 56 102 179 182 44 96 70 61 103 127 268 276 315 361 386 431 452 445 431 416 425 420 420 426 416 411 422 475 511 469 428 440 407 379 357 382 370 357 336
132 95 35 50 63 96 71 81 174 127 66 60 41 102 189 234 269 343 397 410 432 468 471 474 487 482 465 457 460 481 490 504 514 558 602 594 512 403 424 450 365 374 331 291
49 -1 60 22 2 6 -20 -16 68 3 20 11 60 134 214 288 296 365 388 400 457 509 518 549 599 612 561 518 515 511 547 545 572 576 550 546 507 526 509 406 352 310 259 218
86 100 56 19 15 48 37 25 18 36 62 66 117 171 246 299 295 365 382 418 500 571 651 709 759 753 650 599 605 619 629 660 629 593 513 482 456 459 459 360 253 193 172 159
78 100 79 44 41 73 87 70 57 49 61 116 108 162 301 342 328 348 390 505 701 855 941 975 1002 976 865 771 731 666 656 655 656 634 607 550 480 411 340 307 283 212 136 104
237 207 113 96 111 100 56 50 39 62 87 119 122 180 331 450 475 526 648 801 956 1078 1042 1045 1032 949 862 837 848 786 677 617 572 568 565 516 469 454 321 257 246 214 148 128
229 149 224 280 300 207 93 76 57 71 99 153 276 469 589 700 831 889 924 948 1110 1133 1126 1139 1104 902 821 771 722 666 608 564 607 573 484 360 281 253 234 235 227 207 200 195
171 224 224 247 247 205 211 175 118 113 180 328 414 517 707 872 990 1048 1106 1186 1315 1378 1358 1288 1126 997 852 728 626 613 550 372 261 263 239 225 220 220 215 206 189 192 200 192
164 156 172 168 162 175 220 213 172 207 247 283 418 584 722 791 824 877 962 1168 1228 1268 1105 896 704 559 461 412 377 315 258 241 216 192 167 168 166 170 166 175 194 220 241 198
156 160 166 194 216 247 246 221 214 225 266 324 474 540 608 736 802 832 776 798 631 532 453 415 394 392 370 314 240 197 178 163 144 140 139 129 129 138 176 204 220 220 221 216
124 147 198 285 394 397 358 318 297 338 348 378 417 478 557 620 608 545 469 445 372 307 301 281 248 230 210 179 161 142 140 141 133 118 127 140 161 190 202 210 209 212 217 219
250 264 294 313 336 345 337 344 382 433 439 458 463 471 475 378 328 278 291 297 225 156 135 135 129 125 126 115 93 94 113 129 145 155 165 176 189 200 210 221 223 227 232 235
204 229 245 255 281 306 305 292 295 311 328 318 286 265 259 240 206 196 148 118 89 116 123 127 120 120 106 103 106 120 123 131 141 153 174 191 198 199 209 218 236 239 235 228
178 182 188 202 203 197 219 233 230 223 221 196 174 150 136 107 88 90 95 65 91 103 94 101 112 124 146 128 142 161 175 184 187 193 197 204 207 220 220 224 225 232 236 225
191 202 189 161 164 200 217 188 189 192 184 159 129 105 84 87 115 107 117 119 117 105 98 111 138 164 181 157 158 159 165 173 180 188 195 223 230 238 261 268 251 216 209 196
239 230 211 194 183 133 117 114 131 139 151 155 150 140 134 114 87 99 143 116 140 109 99 118 145 166 158 169 174 177 180 184 203 201 202 206 211 219 227 229 239 228 192 172
216 198 206 237 210 183 181 158 137 103 107 121 139 145 146 125 119 141 151 150 135 132 107 86 117 116 124 140 145 154 154 160 161 166 176 184 194 195 183 181 174 159 134 109
266 236 204 210 203 195 190 179 187 182 148 157 199 205 215 222 203 187 189 180 180 166 153 151 152 151 136 135 128 128 132 127 128 127 128 120 110 103 123 115 93 78 67 54

GFSNGP_con_3kmhel_069.txt.gz
Helicity
113 136 47 95 102 117 138 176 156 52 137 67 95 72 67 52 40 61 56 100 112 109 158 173 187 196 259 327 424 439 401 333 224 134 230 348 330 175 188 237 198 155 154 215
36 85 59 74 126 78 107 129 115 145 115 109 65 92 94 76 70 46 96 72 159 182 208 183 155 170 230 315 410 462 426 356 301 338 309 327 323 285 242 278 288 264 272 302
19 186 189 127 37 84 87 101 121 148 107 63 63 62 106 70 88 79 97 78 148 236 269 224 193 180 219 325 397 421 432 439 381 336 276 277 283 292 316 331 394 369 367 382
-54 60 39 105 63 63 100 125 102 119 85 65 39 46 97 102 61 68 96 114 82 256 257 264 286 264 325 386 406 459 439 428 420 359 319 338 341 348 414 423 428 402 404 418
-96 -188 -47 182 88 29 97 44 129 168 134 123 89 20 40 59 78 76 99 120 139 199 326 411 366 333 344 396 412 418 385 396 361 351 357 375 420 423 431 465 476 448 440 428
-28 -80 -207 -111 34 113 -48 58 81 110 86 180 147 73 63 77 55 35 88 174 230 289 371 386 364 359 379 394 381 367 353 348 337 309 292 334 414 432 420 419 467 480 483 463
46 -26 -44 -79 -7 11 124 102 135 170 216 199 132 107 96 51 36 75 105 171 270 285 277 297 358 381 372 396 390 415 389 326 324 328 348 392 444 438 447 494 510 518 543 501
111 34 -90 -58 126 69 105 192 172 235 298 201 97 146 92 101 56 73 162 188 174 209 228 230 290 365 396 376 410 381 363 367 375 387 393 408 461 474 458 468 506 490 506 531
72 -12 43 21 -6 -191 61 126 222 353 262 288 280 97 156 150 117 74 110 183 178 189 222 227 259 293 335 345 375 370 352 360 376 383 394 399 427 431 447 438 447 463 495 523
127 53 29 168 74 55 -35 -59 83 51 166 261 198 237 236 147 38 15 75 112 174 212 220 242 249 277 279 322 355 391 402 405 428 466 487 461 407 390 408 416 451 460 484 486
42 52 34 32 17 -2 38 -9 17 43 68 170 149 166 163 267 201 127 110 137 184 218 223 228 266 269 275 312 351 374 381 411 450 464 480 514 514 427 421 407 368 417 408 417
41 32 13 48 92 40 60 14 19 7 22 3 82 74 105 226 288 136 153 191 211 219 250 283 294 276 255 251 290 355 391 395 405 434 452 468 526 608 601 477 442 443 416 393
-0 67 38 48 91 80 50 3 90 93 68 43 34 -7 62 158 140 135 98 185 261 300 325 335 342 354 320 298 311 334 369 376 418 438 470 504 521 553 592 625 553 492 459 441
219 147 75 131 108 160 115 138 140 179 188 126 83 65 86 80 258 212 262 313 387 426 437 444 478 475 346 316 399 443 470 497 516 504 513 520 547 581 559 533 544 559 481 396
92 157 89 97 153 220 185 174 163 167 151 157 165 191 245 300 357 370 371 411 508 562 557 538 567 555 495 565 660 665 670 689 716 756 772 695 559 442 380 351 335 321 314 290
121 77 129 120 119 168 168 192 146 169 191 184 186 218 273 378 450 508 531 514 582 608 603 635 639 573 612 662 713 781 814 806 677 494 408 352 297 285 290 295 288 277 262 252
60 42 105 115 80 108 130 117 130 134 150 210 237 245 265 354 469 525 572 597 638 658 645 661 651 657 701 656 619 592 541 496 409 341 327 297 296 313 314 300 271 247 237 219
79 104 108 97 97 82 107 151 153 179 198 216 287 305 386 433 455 477 525 632 751 822 732 606 587 604 606 555 476 417 372 337 304 293 291 303 300 278 258 243 224 206 194 190
112 103 96 111 120 119 122 138 164 175 232 286 407 510 530 560 599 612 602 653 643 659 667 617 574 510 439 355 310 279 274 279 294 299 276 254 230 212 199 186 178 176 174 175
142 155 147 159 224 207 211 222 230 291 301 353 444 543 627 662 632 633 641 669 594 447 387 352 311 294 275 283 271 253 259 238 207 183 168 162 158 165 170 187 185 184 185 194
232 218 205 243 316 307 301 283 295 334 321 367 409 440 442 371 348 342 382 358 293 261 256 258 217 191 166 148 143 138 136 132 131 134 139 143 151 168 183 190 182 177 196 199
236 249 261 267 261 275 266 245 241 245 261 262 259 250 256 271 267 275 241 179 158 173 148 131 119 129 103 104 89 95 105 116 117 124 139 148 157 163 178 187 198 196 184 176
206 188 188 201 193 163 196 205 194 190 191 176 170 160 150 121 93 96 117 93 88 103 94 89 103 119 118 94 97 108 122 126 122 124 127 126 137 146 149 153 155 158 168 172
163 157 148 128 130 182 202 177 175 161 146 150 148 100 70 63 81 60 60 105 135 134 119 110 122 131 107 84 92 97 99 99 97 97 108 118 113 109 110 106 106 102 110 115
159 165 162 146 142 119 114 115 138 133 140 137 130 115 104 83 66 65 89 102 126 110 107 134 131 121 87 84 83 85 88 97 93 88 82 69 64 61 61 69 68 64 57 54
112 98 104 124 99 82 81 85 95 81 79 111 146 129 123 116 115 117 118 118 111 107 95 90 77 75 72 66 63 59 49 56 69 69 65 67 63 61 54 47 44 45 45 45
143 128 114 128 126 112 103 103 103 106 106 91 119 129 128 135 140 130 123 107 88 75 63 61 58 58 51 50 60 57 64 71 69 58 52 53 54 44 42 42 45 48 53 61

GFSNGP_con_3kmhel_072.txt.gz
Helicity
169 148 156 152 195 198 187 172 99 12 8 64 51 51 90 44 49 56 50 77 74 86 134 135 141 165 185 237 284 301 303 282 262 223 130 126 188 226 249 240 184 122 55 134
123 156 175 149 96 61 112 103 146 110 32 88 63 54 52 68 34 46 62 53 59 39 82 165 187 178 190 205 238 278 265 243 220 194 157 126 169 211 216 241 228 229 205 211
52 58 85 134 33 55 82 89 78 70 78 88 96 87 83 64 58 69 84 101 88 111 102 134 195 226 192 198 243 250 231 199 198 207 182 158 132 201 236 268 317 284 280 285
5 14 62 45 29 29 21 140 109 77 71 83 90 84 105 67 77 51 89 72 111 71 67 138 270 246 205 226 256 273 237 194 184 215 228 298 301 281 316 350 318 304 302 322
15 69 5 -38 14 8 40 89 124 77 71 107 115 77 96 56 46 23 111 106 81 75 97 157 283 332 304 259 274 264 272 281 237 266 311 350 315 304 310 334 323 301 332 357
106 -7 -85 -76 48 70 14 84 12 0 75 82 151 138 90 115 69 41 44 52 73 53 118 249 283 357 331 265 267 268 321 303 316 357 323 273 287 310 310 311 381 415 464 431
128 101 50 13 -25 -3 -13 -14 102 142 124 159 63 77 124 120 65 69 13 1 4 44 136 188 248 316 303 258 218 291 332 348 291 250 252 256 295 303 349 443 502 506 537 536
96 78 44 -9 -2 1 26 21 87 139 121 250 194 144 150 150 109 91 72 60 -11 39 113 170 170 189 233 237 302 303 292 277 263 259 291 335 398 397 423 462 489 496 547 582
100 88 95 68 65 52 64 -8 -17 74 166 177 200 176 71 59 166 113 73 67 121 84 154 155 154 163 182 230 246 282 292 299 335 361 355 351 380 428 451 417 471 478 482 499
78 24 18 2 -41 -15 24 104 12 -30 89 3 79 34 53 103 66 79 99 92 134 179 164 162 124 155 168 207 236 247 278 315 343 368 400 394 401 375 388 389 405 413 453 469
77 59 30 36 34 -42 63 20 50 2 4 6 3 22 17 40 104 150 117 161 78 64 62 88 111 132 154 189 240 287 301 299 327 356 383 431 449 375 328 314 285 322 347 373
124 154 72 34 31 94 109 112 62 29 -12 54 21 -16 -40 64 71 43 -23 87 162 92 141 140 133 153 177 180 199 222 240 235 247 282 314 337 362 428 414 327 366 398 442 488
131 110 55 -24 -33 76 72 88 100 115 156 126 117 58 35 74 75 55 106 35 188 130 227 304 283 263 219 220 247 274 283 264 234 283 333 361 377 420 508 578 582 554 567 557
163 91 29 50 15 88 80 91 69 111 147 147 141 143 121 123 167 197 222 228 123 235 238 307 410 425 363 318 355 394 409 409 406 472 498 527 513 512 493 446 429 427 426 357
125 129 55 30 102 96 65 92 85 94 107 123 120 120 122 149 187 207 248 323 431 524 471 389 347 338 305 349 441 475 504 479 524 533 535 525 510 448 342 285 263 240 216 222
118 88 77 17 59 84 70 78 67 83 80 105 131 144 157 195 234 303 329 338 403 428 406 447 524 494 423 402 460 522 538 537 538 493 456 411 350 326 278 237 208 195 220 250
108 76 76 52 42 44 55 50 56 72 84 111 156 168 188 236 321 344 363 412 478 514 506 471 441 467 469 456 414 419 464 528 532 503 460 391 334 297 271 273 286 305 301 259
78 43 62 76 74 51 87 74 96 142 144 138 176 257 348 422 417 431 479 495 549 630 582 485 467 496 491 463 461 479 474 436 379 316 266 267 261 255 257 251 237 221 208 209
114 102 94 97 90 90 101 131 170 173 187 167 253 336 400 486 552 542 567 647 611 548 506 457 477 461 426 357 310 272 250 239 235 232 221 223 223 210 199 189 187 189 193 206
96 74 85 133 143 103 127 162 210 279 244 272 308 391 468 487 434 489 525 571 480 358 342 326 296 286 258 247 214 188 191 186 176 167 157 155 158 164 170 190 188 196 203 207
119 116 185 234 227 217 241 244 263 308 305 318 326 329 327 346 368 290 303 294 271 243 232 237 197 173 164 153 145 129 124 123 132 131 139 143 161 177 187 190 187 182 181 170
200 225 235 242 275 296 263 247 243 227 223 214 208 205 220 244 251 249 221 167 144 154 120 105 89 100 81 99 86 98 112 128 130 132 140 142 137 144 156 159 161 152 143 140
194 191 198 193 170 149 177 201 185 160 152 150 137 129 137 114 96 85 107 82 72 84 71 69 90 113 116 94 97 104 110 114 109 105 102 103 107 106 109 112 111 112 113 102
116 117 102 86 97 139 179 159 149 141 123 119 110 84 67 70 100 85 76 106 121 114 91 71 81 98 77 57 65 70 73 71 64 71 76 90 89 84 88 83 81 70 72 67
88 99 103 103 110 88 82 85 104 100 108 112 110 103 97 79 56 52 76 79 100 76 72 97 96 88 59 56 56 61 67 64 60 62 64 59 63 71 70 70 58 51 49 46
103 99 99 111 85 65 57 56 70 53 56 86 108 98 98 88 84 80 76 72 69 71 58 53 48 46 46 49 54 55 50 51 61 62 60 63 61 56 51 50 50 50 46 43
122 99 87 107 103 79 74 74 81 82 80 68 95 91 87 86 83 70 64 57 49 55 51 48 44 41 43 47 48 41 40 44 49 46 46 44 47 45 48 47 45 45 45 45

GFSNGP_con_3kmhel_078.txt.gz
Helicity
164 136 119 123 145 137 102 99 109 83 79 57 42 31 51 71 83 51 28 51 31 44 29 37 45 46 52 67 92 112 128 131 145 122 93 71 67 89 119 119 104 82 106 127
116 141 121 112 102 101 94 78 50 26 13 -1 29 38 39 34 31 11 41 18 20 44 45 40 36 51 75 60 69 86 91 96 83 105 121 122 121 115 123 133 112 92 104 131
98 76 71 77 49 36 50 52 64 59 124 54 4 37 45 26 60 70 45 95 23 34 51 46 42 77 85 87 88 72 71 60 67 82 88 102 112 119 118 111 107 98 104 119
116 90 76 117 108 69 50 68 69 90 107 59 13 -11 19 31 90 73 94 100 103 44 43 39 52 64 37 72 86 94 77 77 81 72 59 66 81 92 116 126 134 131 91 81
171 79 97 117 109 84 90 110 123 77 25 29 52 -0 47 135 81 62 86 88 93 69 89 59 71 73 78 91 103 112 107 98 110 115 93 90 110 114 112 141 159 127 164 139
143 142 110 121 167 144 145 101 126 116 165 174 129 112 105 73 99 84 95 90 146 91 52 69 68 57 52 100 143 122 126 139 148 119 110 132 149 184 264 245 235 294 335 300
67 104 98 144 33 11 139 185 153 167 189 199 149 124 119 102 96 114 147 50 52 121 55 53 50 59 58 72 87 91 124 162 193 198 218 180 217 302 350 363 384 378 377 348
66 74 47 62 27 87 188 183 127 72 76 107 112 93 79 48 107 94 123 139 89 16 62 103 68 56 52 76 162 252 322 327 292 222 271 256 265 343 394 397 446 437 423 416
51 38 34 24 71 6 -3 -30 1 15 2 16 53 69 52 29 53 76 85 71 93 104 58 108 153 152 126 127 91 125 223 333 382 372 415 378 310 289 340 355 418 400 400 402
48 51 55 58 -11 -8 -16 -28 -25 -20 -5 -10 32 66 39 61 93 71 86 88 75 55 57 107 113 196 210 175 202 228 283 382 418 466 421 473 428 323 282 320 388 382 382 396
36 28 43 55 81 56 36 2 14 32 49 34 37 12 64 122 68 62 64 64 102 56 24 42 127 185 256 291 281 308 342 356 363 390 417 470 451 324 301 304 255 293 333 373
55 72 44 40 43 3 14 -1 -8 30 76 94 98 102 150 163 112 47 69 57 90 122 164 145 126 178 179 207 218 296 329 296 303 350 388 411 443 527 496 332 358 388 388 404
94 91 64 39 13 25 73 106 99 60 84 99 94 89 118 124 117 146 65 62 94 118 139 179 201 219 147 100 215 262 308 327 331 352 378 420 570 417 444 473 446 395 397 381
101 64 54 167 90 38 56 63 54 47 45 86 90 89 112 172 176 157 131 122 109 150 195 211 237 323 317 275 136 173 209 251 276 262 294 342 327 335 360 416 471 497 483 375
108 90 55 52 100 94 76 73 74 88 82 89 111 111 128 163 138 156 130 122 135 189 239 256 289 341 346 375 401 454 450 440 408 385 438 414 408 410 408 378 383 366 326 342
94 94 94 101 96 87 50 62 86 105 93 59 71 143 139 120 112 157 221 256 251 254 256 275 284 260 269 325 407 491 595 586 599 536 524 471 442 362 333 315 289 286 273 223
98 113 120 124 109 115 97 69 91 114 125 127 121 95 122 151 190 245 288 323 362 396 371 338 294 301 313 317 328 357 383 430 495 492 465 389 378 358 252 260 271 273 255 237
86 104 108 104 117 105 81 61 95 126 138 147 177 205 226 269 285 315 361 368 415 469 476 427 400 384 374 357 308 279 289 302 336 287 230 210 208 203 186 184 174 174 188 223
102 120 134 143 130 107 98 86 90 155 185 183 199 247 244 277 294 312 328 416 429 441 430 378 404 392 355 321 267 226 209 190 184 181 178 190 198 199 190 184 188 191 189 196
102 107 122 135 143 131 125 121 114 181 219 240 249 266 304 311 301 330 355 398 352 273 265 268 248 234 180 190 186 162 160 157 158 157 160 157 153 154 171 207 196 198 204 202
147 147 160 161 171 183 189 166 165 206 223 218 216 217 211 224 242 209 243 268 270 220 195 189 152 109 96 94 97 95 98 100 114 126 134 141 150 161 168 174 176 173 167 160
150 162 174 168 177 198 200 185 186 181 197 204 189 163 151 157 158 163 155 117 78 97 78 85 88 111 93 112 101 111 121 131 135 137 147 145 140 143 151 149 149 139 130 121
120 129 135 142 137 133 140 151 146 128 128 132 125 113 101 86 75 70 92 87 68 86 79 95 116 134 139 127 129 135 143 146 142 138 132 130 128 121 127 126 117 116 119 120
64 62 63 55 58 71 106 102 94 91 92 93 89 70 53 47 61 56 48 68 93 105 113 115 128 146 138 119 120 118 114 110 102 93 89 94 89 100 106 109 114 110 101 94
64 67 71 73 91 75 62 58 64 65 75 85 89 88 87 74 59 55 61 72 95 87 91 120 130 127 104 95 90 85 80 77 75 76 94 99 100 100 97 91 84 81 78 81
75 84 83 88 75 51 49 48 60 55 51 62 72 68 69 67 66 68 74 83 81 81 79 76 79 74 75 77 75 79 82 82 84 86 82 81 78 75 73 72 71 72 74 75
87 75 71 77 78 77 71 65 62 71 72 68 77 75 75 76 84 82 83 76 72 76 62 61 63 70 63 64 66 62 58 59 63 59 61 61 63 66 66 64 66 66 69 70

GFSNGP_con_3kmhel_081.txt.gz
Helicity
92 99 124 135 120 115 47 34 59 62 55 27 38 63 70 60 53 48 71 31 24 26 37 40 46 61 88 96 138 148 163 175 199 208 190 166 177 154 175 176 176 171 163 149
93 81 89 76 48 37 53 61 48 29 21 9 -8 30 20 35 50 62 85 79 107 89 46 43 46 46 63 68 91 134 145 182 186 203 218 204 181 191 186 180 179 190 192 197
126 63 61 85 41 28 22 12 -9 -13 33 78 85 96 74 59 79 73 29 57 92 115 120 73 51 57 49 60 75 114 110 100 121 164 192 209 193 189 211 221 216 208 232 225
86 83 68 31 31 81 58 19 45 55 41 97 84 91 19 97 139 141 153 109 68 123 160 146 89 84 61 44 90 110 99 95 106 132 144 162 172 195 217 248 247 232 238 240
87 73 65 81 46 31 45 43 124 128 107 124 123 63 72 150 71 93 105 98 49 95 88 122 147 72 64 65 72 94 109 114 115 143 138 139 166 162 167 209 214 208 236 228
100 62 41 21 76 135 87 71 190 130 147 153 160 107 74 96 67 89 113 95 85 57 57 47 94 142 101 71 58 70 105 123 129 164 218 194 167 139 166 173 182 207 244 342
55 90 91 88 57 77 48 153 186 206 205 170 139 128 99 82 71 49 34 58 81 141 136 76 61 75 98 102 64 55 72 106 106 181 184 146 217 255 233 380 531 501 440 428
68 103 79 53 65 101 140 130 165 149 139 114 128 88 70 53 47 50 58 57 78 28 71 87 56 107 103 93 164 181 207 155 151 171 188 258 324 492 622 517 524 529 489 464
39 44 56 102 153 128 172 135 132 127 136 60 13 32 49 64 47 80 72 75 71 77 49 57 90 68 103 171 176 166 224 374 463 527 594 562 465 456 428 457 481 540 502 452
59 14 36 46 77 91 63 23 34 17 5 -9 5 11 23 35 114 120 138 102 79 107 112 95 61 63 86 119 136 161 280 301 365 441 484 501 502 484 442 404 432 413 542 570
17 6 21 71 85 24 55 24 23 30 13 8 7 36 54 75 101 141 174 163 124 72 57 57 99 75 43 54 94 158 214 277 348 444 527 581 649 569 490 382 358 417 448 502
95 146 144 142 106 46 54 40 30 37 63 75 71 69 87 92 99 117 146 149 161 131 104 74 77 86 142 45 3 103 198 269 309 338 440 515 579 653 611 573 384 327 383 371
80 69 37 47 13 85 63 46 57 68 82 106 128 111 114 122 114 118 160 161 168 148 92 127 124 157 182 212 130 -7 29 117 283 376 323 312 306 325 378 497 552 659 635 647
63 56 57 41 14 53 54 43 43 47 69 85 99 108 128 125 132 149 181 178 204 151 127 150 151 184 213 204 299 297 228 217 193 97 115 188 321 343 330 391 479 529 545 435
54 38 35 53 70 59 29 48 52 67 75 75 79 94 124 136 138 140 178 179 132 180 208 195 191 228 239 235 246 287 340 388 392 386 426 325 323 383 397 431 463 447 435 409
71 91 130 89 67 76 80 86 83 79 81 72 86 126 129 100 141 186 237 246 268 232 236 253 253 254 272 275 267 299 367 371 396 373 427 391 387 441 445 451 358 322 254 183
88 111 101 96 92 99 110 107 112 123 112 111 120 122 140 158 210 319 290 285 302 337 333 343 330 337 329 339 370 363 345 402 411 400 400 354 331 321 277 250 248 248 275 274
109 103 101 101 111 125 143 156 166 169 147 122 127 187 252 310 321 308 272 254 336 407 418 359 358 368 372 346 323 317 336 321 302 300 296 298 269 236 198 180 171 181 200 218
122 127 138 148 148 164 171 167 172 151 148 174 187 238 266 299 266 268 273 302 354 359 368 314 311 285 282 249 200 182 185 192 180 180 180 199 204 181 166 162 163 159 152 154
154 153 138 160 196 178 175 171 173 193 209 221 233 275 313 311 263 235 234 290 286 249 241 250 214 214 177 177 147 132 144 145 149 149 150 145 150 150 150 169 147 152 160 165
140 124 144 162 184 197 213 211 206 224 233 246 253 260 258 255 307 231 208 218 221 167 155 165 170 118 101 95 99 106 115 121 126 129 134 138 147 157 157 161 163 150 140 136
142 145 145 147 171 199 209 207 212 213 216 220 205 174 156 153 134 144 153 119 75 89 71 80 88 120 100 113 108 118 130 140 139 135 138 144 147 147 148 145 144 138 134 128
132 127 125 132 139 147 148 159 149 136 135 134 129 120 116 96 88 82 94 95 75 89 70 88 108 120 127 115 118 123 132 138 138 137 134 133 130 125 122 125 114 112 111 107
78 75 75 65 63 79 114 96 89 86 78 74 91 106 65 49 68 69 60 67 82 94 107 115 126 137 128 110 117 121 121 119 114 107 101 110 101 99 103 104 107 94 90 91
72 67 59 60 80 71 49 44 43 46 62 75 82 83 86 80 67 63 65 69 94 87 88 109 119 125 111 111 110 105 102 104 105 97 100 101 101 104 101 96 95 90 84 86
86 95 92 107 89 65 55 50 63 65 61 66 68 67 70 71 72 72 75 83 84 88 86 85 95 86 81 81 77 77 76 78 76 76 73 80 77 80 82 81 80 82 84 83
105 86 86 90 84 91 92 88 78 77 76 72 76 69 70 70 73 72 71 66 63 61 58 56 58 64 59 60 63 62 60 59 70 69 71 74 75 78 80 76 75 74 73 72

GFSNGP_con_3kmhel_084.txt.gz
Helicity
87 -22 95 56 10 59 21 23 60 63 12 45 64 11 20 57 86 92 56 59 92 29 42 41 78 118 147 167 198 210 165 183 253 291 266 249 242 242 202 204 233 246 258 233
98 80 6 71 -26 16 -4 -8 -13 41 42 -0 -27 -13 45 99 112 117 106 106 130 179 129 93 121 142 123 172 215 238 200 198 233 293 310 297 295 311 279 239 257 248 264 283
77 128 103 29 18 27 35 43 47 37 42 60 80 137 197 156 113 104 121 162 144 149 166 152 201 199 107 124 180 234 224 191 187 226 272 311 306 289 296 286 278 293 288 295
90 134 76 32 50 51 52 -0 -14 8 35 13 81 49 90 176 133 81 105 120 81 51 151 112 137 171 261 204 151 160 186 194 190 203 222 264 308 303 284 301 305 311 302 295
75 62 65 128 55 28 86 97 60 143 159 227 167 46 165 181 138 123 55 45 74 55 90 129 184 194 172 147 157 115 165 177 187 199 169 193 232 266 279 279 280 296 287 272
91 32 23 35 43 84 39 84 69 223 66 193 198 258 198 133 81 49 44 36 -1 13 44 66 120 109 140 145 187 258 225 89 191 187 164 172 193 201 218 239 237 235 217 301
98 123 107 17 105 148 100 213 208 269 306 336 296 236 159 115 109 75 32 73 144 76 3 35 41 81 110 162 238 254 158 86 172 229 197 161 196 228 246 237 328 457 548 566
88 116 86 43 92 129 150 160 163 212 213 218 192 143 123 122 139 163 165 182 201 141 39 45 44 33 57 110 150 149 126 146 262 439 371 278 287 542 631 616 613 700 627 633
54 40 64 98 145 171 182 185 217 234 203 158 121 120 145 123 91 109 164 171 129 102 79 50 44 42 47 79 56 88 149 148 192 356 486 569 563 516 518 456 468 401 412 512
-9 38 149 86 261 270 283 291 286 210 166 134 112 98 83 86 87 101 129 129 107 120 98 91 97 96 68 68 40 6 27 172 163 259 364 453 469 473 455 487 517 584 646 476
22 95 -0 185 154 200 117 132 94 81 53 33 44 50 65 58 86 85 99 91 90 90 92 111 104 118 106 87 71 -0 -24 -42 82 127 253 373 547 449 398 445 453 566 637 582
122 149 117 13 51 78 82 31 15 4 20 42 64 43 60 58 78 99 110 114 119 115 105 122 156 164 157 146 94 61 12 -66 -97 -5 55 208 389 518 663 632 632 600 763 775
73 123 46 14 39 45 19 6 20 29 29 34 55 79 89 77 76 81 98 103 123 134 119 114 132 189 169 152 138 160 167 175 52 70 71 79 63 84 218 325 445 483 398 554
106 110 66 10 -54 16 33 42 17 39 50 60 68 79 106 110 117 109 123 116 124 130 149 168 157 156 177 173 165 182 216 279 239 229 227 253 238 234 255 317 349 379 471 454
84 45 43 53 32 42 69 78 54 61 57 66 77 89 99 107 118 120 156 153 156 187 242 237 240 257 218 215 237 230 241 242 229 243 248 232 214 252 257 239 228 247 296 372
90 90 105 87 93 86 84 97 105 115 92 98 85 85 87 94 109 150 200 252 289 321 408 399 339 284 254 238 258 299 348 382 367 329 311 313 315 328 337 307 253 252 273 207
85 104 98 98 93 107 103 104 114 120 145 137 148 131 104 114 151 190 251 298 366 438 465 502 416 326 288 312 310 295 301 324 319 291 263 263 243 261 250 246 258 267 246 196
123 124 129 125 119 130 147 145 145 157 165 178 187 209 251 260 256 257 270 295 329 404 428 353 344 303 277 276 260 244 242 248 251 250 229 232 215 191 190 201 201 196 190 205
125 136 154 182 174 188 178 154 155 166 181 192 232 256 256 269 291 291 279 335 346 366 352 241 272 261 250 245 196 192 203 206 207 211 212 223 221 207 194 189 187 181 165 161
140 157 175 186 253 249 227 222 227 247 235 250 273 321 351 320 210 222 250 295 265 208 198 237 184 177 136 129 138 127 129 129 138 157 164 163 164 166 162 176 157 153 148 146
115 136 157 172 181 190 184 164 176 212 213 218 226 237 229 212 246 199 177 192 179 128 125 138 137 81 77 79 103 111 117 125 131 140 142 149 159 173 178 182 180 176 171 156
102 100 101 115 138 155 155 159 179 186 190 204 213 182 138 103 73 114 146 92 49 65 68 87 114 131 84 86 95 115 126 137 143 148 158 160 167 162 163 165 162 153 135 123
57 61 65 69 78 89 91 104 112 124 144 141 107 74 67 64 60 66 74 75 69 84 71 93 111 110 116 108 99 91 98 114 121 121 120 128 129 124 131 130 107 104 114 114
51 54 57 50 44 61 91 63 59 59 50 60 73 104 74 35 51 61 51 30 22 31 62 76 94 104 92 78 93 115 129 107 97 96 99 107 98 87 86 102 114 96 92 99
72 64 53 47 76 70 46 24 23 31 48 60 70 77 79 74 61 55 48 45 73 62 65 103 97 85 82 86 94 69 54 69 91 78 74 73 79 80 87 82 79 81 89 93
104 110 111 123 102 70 46 35 56 53 42 46 56 55 61 62 58 51 48 58 64 72 66 59 84 90 72 65 62 59 59 69 76 65 66 72 73 74 78 80 85 90 90 88
89 72 77 91 90 105 118 122 96 78 78 70 73 58 53 47 51 59 63 65 66 63 55 49 44 49 49 57 53 54 51 30 31 43 59 64 69 75 79 81 86 83 84 83

GFSNGP_con_3kmhel_087.txt.gz
Helicity
98 37 -45 -23 56 50 37 75 81 65 32 27 124 125 136 33 65 15 102 25 33 66 132 100 126 133 223 360 350 256 245 288 333 312 267 221 204 250 246 248 251 224 221 204
26 49 -42 -27 -44 63 32 59 32 24 46 16 -0 22 40 58 127 137 154 171 195 176 136 149 127 137 135 160 339 351 259 231 295 345 358 356 320 300 280 277 278 237 230 219
-14 106 88 26 -27 -26 41 -58 32 45 -8 7 78 224 137 113 141 127 127 111 73 107 34 23 70 151 182 275 176 227 320 304 272 336 332 345 359 335 346 342 303 306 282 249
-33 56 13 16 43 11 45 98 34 120 121 150 103 175 212 171 152 93 74 51 18 11 16 27 -6 66 124 168 173 263 122 213 302 302 294 332 329 379 380 370 368 343 329 348
1 -4 27 80 110 126 94 109 56 84 166 301 186 294 308 246 178 134 107 99 116 88 48 35 93 147 64 108 140 231 335 403 253 140 232 284 274 307 359 389 389 378 367 353
96 21 -1 -7 57 44 28 99 28 101 233 260 229 283 315 231 205 214 273 243 189 118 52 60 91 114 93 128 108 134 194 191 282 242 163 235 291 301 356 364 345 354 328 352
75 74 87 80 104 128 81 142 224 231 241 277 299 273 128 139 209 163 185 201 136 57 31 54 53 85 80 90 149 174 117 88 94 189 242 359 250 225 335 352 329 348 461 553
91 88 70 85 131 155 197 397 376 401 355 317 245 180 192 188 199 137 141 87 70 21 1 53 74 71 68 87 98 79 54 62 63 72 189 297 394 343 375 401 482 533 596 609
86 39 95 213 246 361 300 369 352 238 213 218 194 182 147 120 144 111 104 54 47 59 84 73 84 76 75 75 51 32 23 15 14 -29 19 230 322 408 454 448 465 530 546 646
66 89 154 298 342 344 310 341 227 167 156 181 141 145 120 104 94 68 65 87 87 95 90 89 90 79 69 79 64 39 33 38 1 -11 -25 -7 175 253 262 378 354 476 580 737
92 67 222 227 229 266 301 235 217 136 157 161 139 110 37 51 63 50 44 47 51 61 73 87 80 90 96 105 87 78 80 81 46 18 19 3 -30 107 66 73 207 344 430 578
166 182 177 150 102 91 94 106 91 88 91 91 131 119 84 86 70 61 55 69 83 93 95 107 112 125 129 133 105 82 107 118 132 128 105 81 84 120 219 192 102 51 152 355
50 62 39 1 -1 10 34 30 60 80 101 95 90 102 114 94 100 84 73 81 94 108 119 129 133 150 164 131 121 134 134 137 169 182 188 198 152 130 97 278 446 476 428 383
208 -4 38 35 7 68 90 94 86 65 76 76 81 92 96 88 94 106 105 92 116 144 175 185 190 219 210 190 163 189 206 227 212 236 235 227 252 230 232 241 273 320 433 291
115 156 149 149 131 87 97 125 122 93 74 63 56 68 77 96 114 128 121 117 136 194 235 247 276 286 303 299 309 278 228 221 242 278 301 291 285 288 277 291 258 270 283 356
120 105 106 97 89 82 86 78 66 80 84 64 65 65 68 86 128 188 237 261 275 271 265 278 313 305 326 362 382 344 310 318 302 299 316 336 316 310 270 251 237 234 241 211
96 96 84 69 72 79 74 72 80 87 95 113 143 115 126 178 219 249 275 302 315 331 332 338 300 273 283 282 316 364 342 299 274 256 256 254 249 245 233 233 241 232 224 218
104 103 120 120 114 99 98 96 105 131 147 159 187 223 241 250 248 262 267 263 290 344 364 328 274 268 257 237 224 201 193 214 227 228 221 236 225 218 211 199 184 174 165 183
94 89 105 160 126 122 115 127 137 146 181 183 201 211 207 227 239 243 236 267 290 303 298 254 263 245 266 226 172 165 189 185 167 164 168 174 174 161 160 154 152 150 142 147
81 94 102 141 161 146 147 160 166 169 155 163 172 205 227 192 170 190 213 258 234 186 172 183 152 153 154 148 130 115 124 122 122 132 143 157 161 163 168 183 166 159 151 139
65 74 90 109 139 156 158 144 155 173 163 155 158 153 152 163 193 143 161 193 165 128 130 152 134 83 91 106 130 138 146 150 158 158 165 169 180 181 175 176 177 153 147 144
61 67 70 75 89 104 106 110 114 113 116 116 109 86 73 71 84 112 118 99 74 95 111 130 113 127 107 111 107 121 136 143 137 136 145 153 161 163 149 139 148 151 121 114
31 33 34 40 46 57 64 70 67 69 84 77 46 35 47 48 41 45 61 59 64 94 102 110 109 101 104 107 114 124 128 133 137 134 130 121 118 132 140 135 125 122 112 99
45 37 33 23 22 44 57 28 33 30 32 49 57 84 35 28 55 59 42 38 55 80 94 96 94 114 114 98 102 107 122 125 119 107 98 102 101 100 93 102 122 109 105 119
45 34 25 38 49 37 20 -7 -0 13 38 53 58 66 71 61 46 49 47 52 60 58 71 103 113 104 89 79 60 61 80 85 92 78 84 73 66 78 91 86 97 92 84 83
100 99 110 130 100 51 24 38 53 40 35 29 32 42 63 53 34 29 39 45 45 34 31 46 60 71 76 67 51 33 35 50 74 70 68 72 60 66 79 91 95 91 76 70
101 66 83 95 89 107 136 174 147 120 96 61 52 28 25 41 57 59 61 59 66 58 33 15 18 30 40 57 56 43 19 30 43 50 52 62 61 59 65 69 69 73 73 73

GFSNGP_con_3kmhel_090.txt.gz
Helicity
45 43 13 -2 -15 31 -18 40 85 63 16 23 -59 -17 63 436 311 47 80 113 141 177 160 172 187 125 19 91 132 222 257 230 202 191 192 209 206 194 190 180 182 184 182 159
-28 7 36 26 -28 -23 11 61 48 15 47 41 58 15 90 212 125 40 47 -18 1 105 144 177 163 139 123 52 89 144 193 244 247 270 219 198 206 234 227 237 237 231 237 226
-39 25 50 -11 -20 -36 -2 11 -74 47 66 66 27 21 43 90 158 139 68 63 72 -38 12 140 202 206 211 208 158 19 114 177 129 165 198 220 244 247 241 259 275 303 295 278
-20 -19 -36 18 64 -5 45 27 -38 16 37 50 176 305 249 209 127 209 209 193 171 123 93 107 111 137 154 199 249 233 243 252 225 161 134 192 264 301 306 309 278 274 297 297
45 34 19 -11 89 72 -2 40 105 145 96 209 223 181 283 274 252 226 198 143 108 66 65 75 99 77 107 169 174 214 226 198 197 227 159 179 147 229 277 302 320 355 308 270
92 33 -4 40 70 95 45 57 113 161 114 120 141 183 171 221 200 179 164 113 84 76 81 99 130 78 75 102 131 198 225 190 160 157 151 153 212 236 136 234 292 352 335 342
107 87 69 70 155 125 44 62 179 198 191 226 228 185 185 171 126 79 81 93 88 105 118 114 119 93 100 101 130 123 105 111 125 132 106 113 116 147 237 302 206 293 345 503
123 92 49 -9 41 103 205 377 353 294 226 247 249 215 178 156 67 51 79 88 90 67 85 105 128 112 95 98 83 76 85 102 100 92 82 97 104 73 130 246 351 429 480 552
70 80 111 132 176 333 331 363 318 277 247 222 199 164 140 127 96 88 94 90 101 88 87 104 106 100 104 126 116 87 59 74 94 101 95 92 151 169 100 86 183 297 401 493
75 127 172 237 280 358 384 317 253 274 218 188 109 79 95 101 98 83 54 59 75 84 88 87 86 81 71 82 76 65 64 66 72 70 66 99 88 124 160 153 79 78 110 192
195 227 229 295 243 221 244 296 201 138 115 156 145 114 100 103 91 63 40 62 54 56 64 85 98 92 84 77 58 47 60 74 70 58 60 74 128 137 104 190 171 118 62 77
39 232 187 197 226 139 158 171 238 111 119 155 141 116 96 89 84 87 85 79 78 88 88 93 95 102 114 108 94 76 80 93 108 95 96 71 18 100 335 295 314 302 252 159
80 78 61 23 46 52 -7 4 21 39 65 70 87 90 89 71 86 97 90 86 76 71 81 90 100 124 136 124 119 129 108 102 105 119 125 105 72 78 99 297 495 456 422 392
172 58 103 86 19 69 56 47 41 44 48 52 63 78 81 86 102 120 127 103 92 100 124 133 142 165 175 173 167 181 202 241 209 207 214 240 239 225 220 255 281 303 419 366
101 120 91 85 88 101 96 66 55 43 37 50 77 108 118 130 147 152 152 141 140 172 208 206 205 217 196 192 209 232 239 271 280 305 342 318 308 314 288 291 291 276 263 308
53 92 101 111 101 94 93 91 76 78 74 71 86 100 109 131 156 180 197 204 220 239 248 243 241 224 212 212 212 228 250 272 299 334 369 388 358 325 298 283 289 276 276 234
51 96 97 81 96 86 70 84 97 109 130 155 147 138 142 158 181 201 217 223 238 263 273 269 262 220 210 219 211 199 203 240 274 283 261 238 243 252 217 207 206 212 217 201
69 76 85 87 72 59 67 75 69 80 94 111 145 165 189 202 200 207 222 225 250 287 313 278 232 239 226 216 217 204 201 215 211 230 215 192 172 156 151 145 145 148 149 176
94 86 107 117 101 93 86 89 100 114 130 144 180 199 200 210 209 210 211 247 271 272 274 235 226 221 220 204 186 177 181 182 188 186 182 165 158 150 142 128 125 131 137 155
93 90 94 114 127 103 98 99 111 134 128 140 152 174 187 176 165 179 184 220 212 169 172 180 163 173 161 162 158 150 161 159 150 154 159 158 151 145 143 149 133 132 131 135
79 83 90 93 105 115 109 97 107 111 98 107 116 116 117 126 134 108 129 166 153 143 150 152 137 126 117 118 135 145 153 153 153 143 138 138 143 142 140 135 130 122 113 109
56 53 51 57 62 71 69 69 69 71 70 64 49 35 45 71 67 87 91 92 82 110 107 113 109 124 117 133 127 124 125 129 124 123 129 128 129 131 125 115 111 104 100 110
32 26 27 35 33 33 49 63 66 64 70 56 60 57 60 45 39 49 71 78 85 109 107 104 103 110 108 95 101 115 122 123 120 117 114 117 113 113 110 110 110 107 102 103
32 35 28 25 37 57 84 54 51 42 36 46 58 40 34 39 57 49 43 64 78 87 83 80 85 86 85 86 102 109 108 99 91 85 82 85 80 92 115 111 98 83 81 78
65 53 47 61 68 53 43 12 23 24 39 50 52 65 68 56 43 44 53 45 64 60 65 81 95 101 81 75 76 78 82 82 76 76 77 77 84 94 91 84 71 64 59 59
108 103 103 105 94 63 42 24 70 62 47 37 35 46 53 49 52 57 59 58 48 60 65 67 76 75 74 67 67 70 77 77 80 74 68 66 66 66 70 75 76 70 59 59
117 100 118 125 117 117 134 139 126 106 72 46 49 45 61 68 68 73 80 89 82 62 41 42 53 53 50 49 46 35 45 45 48 44 51 50 57 55 57 60 67 68 72 84

GFSNGP_con_3kmhel_093.txt.gz
Helicity
37 47 24 43 25 -9 33 62 85 62 -6 28 -38 -75 -110 54 547 462 217 162 286 272 259 244 236 166 67 56 69 109 160 163 156 159 142 139 144 137 137 125 122 117 125 132
9 15 -11 12 34 26 10 38 41 36 32 71 -24 -32 -11 111 135 223 181 170 184 204 255 281 222 296 190 223 90 51 89 109 132 148 147 153 160 171 171 171 179 175 162 157
-14 26 11 37 115 61 7 15 26 58 24 49 66 6 55 201 191 107 189 231 194 139 117 161 179 153 161 147 149 196 155 132 96 106 122 131 148 181 192 200 219 212 208 205
16 5 -17 49 66 -2 51 78 154 7 83 135 261 205 213 209 145 171 112 107 111 90 157 130 121 140 156 177 189 207 228 208 207 210 206 133 94 125 146 203 222 262 276 294
21 3 16 54 89 25 90 45 45 52 120 160 107 140 179 129 155 151 138 118 82 66 97 124 141 92 95 168 193 201 222 229 217 191 172 168 173 198 107 190 179 213 222 248
60 19 -23 52 102 106 51 54 29 92 129 94 99 96 74 122 136 88 125 76 49 65 79 109 132 106 102 130 138 167 185 176 161 166 181 186 183 165 141 160 147 173 208 210
118 80 57 34 2 -21 35 46 117 108 77 38 55 88 98 166 200 160 54 50 66 74 91 108 136 111 102 102 123 108 109 125 146 148 136 145 149 151 165 155 136 218 441 519
58 92 84 39 32 76 67 191 213 243 202 208 228 214 173 163 160 148 114 106 116 85 106 136 149 122 119 135 127 105 84 92 114 127 118 125 141 150 162 169 138 157 242 365
70 35 169 82 126 193 212 291 336 313 271 173 142 148 130 110 85 57 72 91 105 112 118 130 139 139 134 133 106 89 88 88 92 89 95 95 128 148 140 152 146 150 151 192
88 107 149 176 182 232 217 241 343 340 312 283 240 154 153 118 79 71 93 107 111 104 123 146 154 148 137 135 113 95 80 93 103 108 102 112 91 84 84 105 108 107 115 135
99 277 237 234 194 167 276 303 158 146 260 209 135 129 82 64 81 93 90 82 84 98 96 108 111 118 127 122 99 83 87 95 113 110 105 130 211 175 100 131 128 131 166 182
11 95 157 210 228 189 141 96 194 212 187 120 63 76 77 74 82 89 104 107 104 98 88 96 98 101 109 93 92 84 86 94 93 89 90 102 108 175 381 337 395 371 299 238
48 115 81 45 89 65 40 28 21 11 -10 2 36 34 50 61 78 91 91 93 100 91 85 86 95 113 135 122 112 132 128 130 131 140 149 148 141 156 147 237 414 437 415 388
106 26 37 75 40 39 1 -31 -30 -30 -12 4 6 28 54 69 77 91 113 109 104 109 125 124 128 143 143 126 125 137 152 203 193 211 217 220 196 167 148 179 206 235 366 349
34 47 51 50 67 78 64 49 31 28 25 18 23 49 71 87 109 125 132 130 127 146 159 157 162 171 156 148 163 173 157 164 187 210 227 227 225 251 280 306 325 324 307 299
39 59 64 61 69 86 82 81 52 53 54 46 64 92 86 90 111 140 169 185 189 202 211 203 208 191 171 165 159 167 185 215 215 216 226 229 226 234 243 264 299 304 292 255
52 76 101 83 95 105 105 97 91 92 105 127 113 106 116 133 159 182 194 190 198 215 231 240 226 204 183 183 162 149 146 168 183 193 205 201 201 211 203 215 214 192 167 155
101 101 117 130 119 98 97 108 114 127 132 131 135 146 171 181 176 185 200 199 221 249 274 249 207 201 191 179 171 165 173 180 191 199 189 200 191 176 171 162 155 138 129 146
69 73 90 106 107 116 116 117 133 146 158 158 179 193 188 199 193 183 175 197 211 218 234 189 189 182 186 183 165 160 167 173 178 177 167 168 168 146 133 120 117 117 115 123
83 77 77 87 104 73 57 59 59 80 79 93 108 127 138 136 127 132 133 168 166 132 134 146 140 151 147 153 148 133 141 147 142 143 139 137 131 127 121 123 107 106 112 117
76 78 84 88 90 83 73 62 68 68 58 68 70 75 83 83 94 84 118 133 125 103 109 119 117 111 115 120 128 133 137 138 143 136 129 118 117 117 116 116 119 117 115 116
51 56 59 64 66 68 64 65 68 73 71 66 56 50 65 79 78 83 75 80 61 78 76 87 89 111 111 131 124 130 130 129 119 108 109 107 104 106 112 113 111 108 103 103
46 44 51 63 69 66 75 88 86 79 78 68 78 76 70 53 48 63 75 73 65 79 78 86 102 119 124 107 105 105 104 102 98 98 96 99 100 99 96 103 95 78 88 88
57 61 62 66 75 98 112 77 64 53 45 45 50 35 44 53 63 52 53 62 79 84 77 73 79 93 89 79 85 89 90 88 85 85 87 92 85 92 96 88 89 76 71 72
77 72 77 85 85 77 69 47 47 39 43 41 47 54 59 55 48 48 58 62 70 68 68 76 77 76 65 69 74 78 81 79 69 78 79 79 78 78 69 67 60 53 53 52
89 95 102 94 84 90 75 60 69 69 60 51 44 45 56 60 62 66 63 57 60 65 71 72 71 65 59 61 63 65 66 66 72 67 62 54 50 51 50 54 59 57 56 59
129 126 123 121 108 91 93 96 113 94 77 64 55 49 57 71 76 74 74 74 69 60 61 59 60 63 59 55 51 49 48 49 48 47 41 37 37 41 48 52 57 63 71 76